GW6268 Weather Reports


time (UTC)temp
C
wind
direction
speed
KPH
gust
KPH
rain 1hr
cm
rain 24hr
cm
rain mn
cm
humidity
%
barometer
mb
20260507133304 11 24 8.0 14.5 0.00 0.00 0.00 79 1018.2
20260507132803 11 30 9.7 19.3 0.00 0.00 0.00 79 1018.2
20260507132307 11 37 9.7 19.3 0.00 0.00 0.00 78 1018.2
20260507131803 11 29 8.0 19.3 0.00 0.00 0.00 79 1018.3
20260507131305 12 33 9.7 16.1 0.00 0.00 0.00 78 1018.3
20260507130803 12 49 9.7 19.3 0.00 0.00 0.00 78 1018.2
20260507130303 12 27 6.4 19.3 0.00 0.00 0.00 78 1018.3
20260507125803 12 58 8.0 14.5 0.00 0.00 0.00 77 1018.3
20260507124303 12 46 9.7 14.5 0.00 0.00 0.00 76 1018.1
20260507123303 12 34 8.0 16.1 0.00 0.00 0.00 74 1018.2
20260507122804 12 21 9.7 19.3 0.00 0.00 0.00 74 1018.3
20260507122306 12 44 11.3 22.5 0.00 0.00 0.00 76 1018.2
20260507121803 12 40 9.7 19.3 0.00 0.00 0.00 76 1018.2
20260507121303 11 27 11.3 19.3 0.00 0.00 0.00 75 1018.2
20260507120803 11 42 8.0 19.3 0.00 0.00 0.00 76 1018.4
20260507120302 11 47 11.3 19.3 0.00 0.00 0.00 75 1018.2
20260507115804 11 45 8.0 19.3 0.00 0.00 0.00 78 1018.3
20260507115306 10 54 8.0 19.3 0.00 0.00 0.00 80 1018.2
20260507114803 10 39 4.8 14.5 0.00 0.00 0.00 79 1018.4
20260507114303 10 18 8.0 16.1 0.00 0.00 0.00 79 1018.4
20260507113803 10 6 9.7 19.3 0.00 0.00 0.00 78 1018.4
20260507113303 10 358 8.0 14.5 0.00 0.00 0.00 78 1018.3
20260507112803 10 338 3.2 11.3 0.00 0.00 0.00 79 1018.3
20260507112307 10 355 3.2 11.3 0.00 0.00 0.00 79 1018.2
20260507111803 10 37 4.8 11.3 0.00 0.00 0.00 79 1018.3
20260507110803 10 38 8.0 14.5 0.00 0.00 0.00 78 1018.5
20260507110303 10 41 6.4 14.5 0.00 0.00 0.00 77 1018.4
20260507105803 11 37 9.7 19.3 0.00 0.00 0.00 77 1018.3
20260507105306 11 40 11.3 19.3 0.00 0.00 0.00 76 1018.4
20260507104804 11 38 4.8 19.3 0.00 0.00 0.00 77 1018.5
20260507104303 11 69 8.0 16.1 0.00 0.00 0.00 76 1018.4
20260507103306 11 349 9.7 16.1 0.00 0.00 0.00 77 1018.7
20260507102803 11 343 8.0 19.3 0.00 0.00 0.00 76 1018.7
20260507101303 11 37 6.4 11.3 0.00 0.00 0.00 72 1018.5
20260507100803 11 347 3.2 8.0 0.00 0.00 0.00 73 1018.6
20260507100303 11 107 6.4 9.7 0.00 0.00 0.00 71 1018.6
20260507095803 11 67 1.6 8.0 0.00 0.00 0.00 71 1018.5
20260507095305 11 91 6.4 9.7 0.00 0.00 0.00 70 1018.6
20260507094803 11 61 4.8 8.0 0.00 0.00 0.00 71 1018.5
20260507094303 11 97 3.2 8.0 0.00 0.00 0.00 73 1018.5
20260507093804 11 89 4.8 12.9 0.00 0.00 0.00 72 1018.5
20260507093303 11 158 8.0 12.9 0.00 0.00 0.00 71 1018.5
20260507092803 11 106 6.4 9.7 0.00 0.00 0.00 71 1018.5
20260507092306 11 172 4.8 9.7 0.00 0.00 0.00 73 1018.5
20260507091803 11 117 8.0 14.5 0.00 0.00 0.00 72 1018.5
20260507090804 11 134 4.8 11.3 0.00 0.00 0.00 74 1018.6
20260507090303 11 73 9.7 16.1 0.00 0.00 0.00 74 1018.5
20260507084803 10 84 11.3 16.1 0.00 0.00 0.00 73 1018.5
20260507083805 10 89 9.7 16.1 0.00 0.00 0.00 77 1018.4
20260507083303 10 135 4.8 11.3 0.00 0.00 0.00 78 1018.6
20260507081803 9 105 9.7 12.9 0.00 0.00 0.00 78 1018.4
20260507081303 9 96 4.8 9.7 0.00 0.00 0.00 79 1018.5
20260507080803 9 102 4.8 8.0 0.00 0.00 0.00 79 1018.5
20260507080303 9 86 4.8 8.0 0.00 0.00 0.00 78 1018.5
20260507075803 9 98 4.8 9.7 0.00 0.00 0.00 79 1018.5
20260507075306 9 97 4.8 4.8 0.00 0.00 0.00 79 1018.3
20260507074804 9 97 6.4 9.7 0.00 0.00 0.00 78 1018.3
20260507074303 9 96 9.7 12.9 0.00 0.00 0.00 78 1018.3
20260507073803 9 106 8.0 12.9 0.00 0.00 0.00 78 1018.2
20260507073303 9 107 9.7 16.1 0.00 0.00 0.00 78 1018.2
20260507072803 9 114 9.7 14.5 0.00 0.00 0.00 78 1018.2
20260507072306 9 122 9.7 12.9 0.00 0.00 0.00 78 1018.2
20260507071803 9 119 11.3 14.5 0.00 0.00 0.00 78 1018.0
20260507071303 9 138 11.3 16.1 0.00 0.00 0.00 78 1018.0
20260507070804 8 97 14.5 19.3 0.00 0.00 0.00 80 1018.1
20260507070303 8 117 11.3 19.3 0.00 0.00 0.00 81 1018.2
20260507065803 8 112 11.3 16.1 0.00 0.00 0.00 82 1018.1
20260507064803 8 114 11.3 12.9 0.00 0.00 0.00 83 1018.0
20260507064303 8 111 9.7 12.9 0.00 0.00 0.00 83 1018.0
20260507063803 8 112 9.7 11.3 0.00 0.00 0.00 84 1017.9
20260507063304 8 115 9.7 11.3 0.00 0.00 0.00 84 1018.0
20260507062803 8 136 8.0 9.7 0.00 0.00 0.00 84 1017.9
20260507062306 8 114 6.4 8.0 0.00 0.00 0.00 85 1018.0
20260507061804 8 142 4.8 4.8 0.00 0.00 0.00 85 1018.0
20260507061303 8 157 4.8 4.8 0.00 0.00 0.00 86 1018.0
20260507060803 8 152 4.8 4.8 0.00 0.00 0.00 86 1018.0
20260507055803 7 138 3.2 4.8 0.00 0.00 0.00 86 1017.9
20260507055306 7 142 3.2 4.8 0.00 0.00 0.00 86 1017.8
20260507054805 7 143 3.2 4.8 0.00 0.00 0.00 87 1017.7
20260507054303 7 142 3.2 3.2 0.00 0.00 0.00 86 1017.7
20260507052805 7 133 3.2 3.2 0.00 0.08 0.00 86 1017.6
20260507051805 7 136 3.2 4.8 0.00 0.10 0.00 86 1017.6
20260507051303 7 140 3.2 4.8 0.00 0.10 0.00 86 1017.6
20260507050803 7 136 3.2 4.8 0.00 0.10 0.00 87 1017.6
20260507050304 7 128 3.2 4.8 0.00 0.10 0.00 87 1017.6
20260507045803 7 127 4.8 4.8 0.00 0.10 0.00 87 1017.6
20260507045306 7 125 3.2 4.8 0.00 0.10 0.00 87 1017.6
20260507044803 7 124 3.2 4.8 0.00 0.10 0.00 86 1017.5
20260507044304 7 122 3.2 4.8 0.00 0.10 0.00 86 1017.5
20260507043303 7 135 3.2 4.8 0.00 0.10 0.00 87 1017.5
20260507042306 7 136 0.0 0.0 0.00 0.10 0.00 87 1017.4
20260507041803 7 124 0.0 0.0 0.00 0.10 0.00 88 1017.3
20260507041303 7 122 0.0 0.0 0.00 0.10 0.00 87 1017.2
20260507040304 7 123 0.0 0.0 0.00 0.10 0.00 87 1017.2
20260507035804 7 146 0.0 0.0 0.00 0.10 0.00 87 1017.2
20260507034803 7 146 0.0 0.0 0.00 0.10 0.00 87 1017.2
20260507033805 7 139 0.0 0.0 0.00 0.10 0.00 86 1017.1
20260507033303 7 143 0.0 0.0 0.00 0.10 0.00 86 1017.1
20260507032803 7 146 0.0 1.6 0.00 0.10 0.00 86 1017.1
20260507032305 7 146 1.6 3.2 0.00 0.10 0.00 86 1017.1
20260507031804 7 146 3.2 3.2 0.00 0.10 0.00 86 1017.1
20260507031305 7 146 1.6 3.2 0.00 0.10 0.00 86 1017.1
20260507030803 7 147 1.6 3.2 0.00 0.10 0.00 86 1017.1
20260507030303 7 147 3.2 4.8 0.00 0.10 0.00 86 1017.1
20260507025803 7 151 3.2 4.8 0.00 0.10 0.00 86 1017.1
20260507025306 7 147 3.2 4.8 0.00 0.10 0.00 86 1017.1
20260507024803 7 146 3.2 4.8 0.00 0.10 0.00 86 1017.1
20260507024303 7 150 3.2 3.2 0.00 0.10 0.00 86 1017.1
20260507023804 7 136 1.6 3.2 0.00 0.10 0.00 86 1017.1
20260507023304 7 143 1.6 3.2 0.00 0.10 0.00 87 1017.1
20260507022803 7 148 1.6 3.2 0.00 0.10 0.00 86 1017.0
20260507022306 7 118 1.6 1.6 0.00 0.10 0.00 86 1017.0
20260507021804 7 142 1.6 3.2 0.00 0.10 0.00 86 1017.0
20260507021303 7 145 3.2 3.2 0.00 0.10 0.00 86 1017.1
20260507020804 7 127 3.2 4.8 0.00 0.10 0.00 86 1017.0
20260507020303 7 136 3.2 3.2 0.00 0.10 0.00 86 1017.1
20260507015804 7 139 3.2 4.8 0.00 0.10 0.00 86 1017.1
20260507014804 7 119 1.6 3.2 0.00 0.10 0.00 85 1016.9
20260507014303 7 109 3.2 4.8 0.00 0.10 0.00 85 1017.0
20260507013804 7 108 4.8 4.8 0.00 0.10 0.00 85 1017.0
20260507012804 8 107 3.2 4.8 0.00 0.10 0.00 85 1017.0
20260507012306 8 96 3.2 4.8 0.00 0.10 0.00 85 1016.9
20260507011803 8 91 3.2 4.8 0.00 0.10 0.00 85 1017.0
20260507011304 8 82 1.6 4.8 0.00 0.10 0.00 85 1016.9
20260507010803 8 86 3.2 4.8 0.00 0.10 0.00 85 1016.9
20260507005803 8 88 3.2 4.8 0.00 0.10 0.00 85 1016.9
20260507005305 8 85 3.2 4.8 0.00 0.10 0.00 85 1016.9
20260507004304 8 88 1.6 3.2 0.00 0.10 0.00 85 1017.1
20260507003804 8 81 3.2 4.8 0.00 0.10 0.00 85 1017.0
20260507003305 8 72 1.6 4.8 0.00 0.10 0.00 85 1017.1
20260507002804 8 82 1.6 4.8 0.00 0.10 0.00 85 1017.0
20260507002306 8 68 3.2 4.8 0.00 0.10 0.00 85 1017.0
20260507001804 8 88 1.6 4.8 0.00 0.10 0.00 85 1017.0
20260507001304 8 62 3.2 4.8 0.00 0.10 0.00 85 1017.1
20260507000803 8 60 3.2 4.8 0.00 0.10 0.00 84 1017.1
20260507000306 8 44 3.2 8.0 0.00 0.10 0.00 84 1017.1
20260506235802 8 74 3.2 4.8 0.00 0.10 0.00 84 1017.2
20260506235301 8 45 3.2 8.0 0.00 0.10 0.00 84 1017.2
20260506234801 8 326 3.2 4.8 0.00 0.10 0.00 84 1017.0
20260506234302 8 68 3.2 8.0 0.00 0.10 0.00 84 1017.2
20260506233302 8 55 1.6 4.8 0.00 0.10 0.00 84 1017.1
20260506232802 8 77 3.2 4.8 0.00 0.10 0.00 84 1017.1
20260506232301 8 48 3.2 4.8 0.00 0.10 0.00 84 1017.1
20260506231801 8 50 3.2 8.0 0.00 0.10 0.00 84 1017.1
20260506230802 8 47 4.8 9.7 0.00 0.10 0.00 84 1017.0
20260506230301 8 37 4.8 11.3 0.00 0.10 0.00 84 1017.0
20260506225802 8 53 3.2 9.7 0.00 0.10 0.10 84 1017.0
20260506225305 8 60 4.8 9.7 0.00 0.10 0.10 84 1017.1
20260506224301 8 28 3.2 8.0 0.00 0.10 0.10 84 1017.1
20260506223801 8 45 3.2 8.0 0.00 0.10 0.10 84 1017.1
20260506223303 8 63 3.2 11.3 0.00 0.10 0.10 84 1017.1
20260506222802 8 65 4.8 9.7 0.00 0.10 0.10 84 1017.1
20260506222305 8 5 3.2 9.7 0.00 0.10 0.10 84 1017.2
20260506221801 8 338 3.2 12.9 0.00 0.10 0.10 84 1017.0
20260506221301 8 4 3.2 9.7 0.00 0.10 0.10 84 1017.1
20260506220802 8 35 4.8 9.7 0.00 0.10 0.10 84 1017.1
20260506220302 8 17 1.6 4.8 0.00 0.10 0.10 84 1017.1
20260506215802 8 44 3.2 9.7 0.00 0.10 0.10 84 1017.2
20260506215305 8 13 4.8 12.9 0.00 0.10 0.10 84 1017.1
20260506214801 8 57 3.2 8.0 0.00 0.10 0.10 84 1017.1
20260506214302 8 30 3.2 8.0 0.00 0.10 0.10 84 1017.0
20260506213802 8 37 3.2 12.9 0.00 0.10 0.10 84 1016.9
20260506213303 8 19 4.8 14.5 0.00 0.10 0.10 85 1017.0
20260506212801 8 298 0.0 9.7 0.00 0.10 0.10 84 1016.8
20260506211301 8 5 4.8 12.9 0.00 0.10 0.10 85 1016.8
20260506210801 8 41 4.8 11.3 0.00 0.10 0.10 85 1016.7
20260506210302 8 53 0.0 8.0 0.00 0.10 0.10 85 1016.8
20260506205802 8 34 4.8 11.3 0.00 0.10 0.10 85 1016.8
20260506205305 8 17 3.2 12.9 0.00 0.10 0.10 85 1016.7
20260506204802 8 12 4.8 14.5 0.00 0.10 0.10 85 1016.7
20260506204303 8 21 1.6 12.9 0.00 0.10 0.10 85 1016.8
20260506203802 8 30 4.8 11.3 0.00 0.10 0.10 85 1016.8
20260506203301 8 13 4.8 12.9 0.00 0.10 0.10 85 1016.7
20260506202801 8 24 3.2 12.9 0.00 0.10 0.10 85 1016.8
20260506201802 8 32 3.2 9.7 0.00 0.10 0.10 86 1016.7
20260506201302 8 0 3.2 14.5 0.00 0.10 0.10 86 1016.6
20260506200802 8 359 6.4 12.9 0.00 0.10 0.10 86 1016.6
20260506200301 8 31 8.0 19.3 0.00 0.10 0.10 86 1016.6
20260506195802 8 7 8.0 19.3 0.00 0.10 0.10 86 1016.6
20260506195305 8 31 8.0 16.1 0.00 0.10 0.10 86 1016.5
20260506194301 8 5 14.5 24.1 0.00 0.10 0.10 86 1016.5
20260506193302 8 3 12.9 20.9 0.00 0.10 0.10 88 1016.4
20260506192804 8 355 11.3 22.5 0.00 0.10 0.10 88 1016.4
20260506192305 8 8 12.9 22.5 0.00 0.10 0.10 88 1016.4
20260506191802 8 15 9.7 19.3 0.00 0.10 0.10 89 1016.4
20260506191302 8 354 9.7 22.5 0.00 0.10 0.10 89 1016.3
20260506190802 8 8 11.3 19.3 0.00 0.10 0.10 89 1016.4
20260506185302 8 357 8.0 19.3 0.00 0.10 0.10 91 1016.4
20260506184302 8 356 8.0 24.1 0.00 0.10 0.10 91 1016.3
20260506183801 8 5 11.3 25.7 0.00 0.10 0.10 91 1016.2
20260506183302 8 24 14.5 25.7 0.00 0.10 0.10 91 1016.1
20260506182802 8 3 11.3 19.3 0.00 0.10 0.10 92 1016.1
20260506182306 8 6 11.3 20.9 0.00 0.10 0.10 92 1016.0
20260506181802 8 0 11.3 22.5 0.00 0.10 0.10 92 1015.9
20260506180801 8 355 11.3 25.7 0.00 0.10 0.10 92 1015.8
20260506180302 8 357 9.7 22.5 0.00 0.10 0.10 92 1015.8
20260506175305 8 357 11.3 20.9 0.00 0.10 0.10 91 1015.7
20260506174302 8 353 11.3 24.1 0.00 0.10 0.10 91 1015.6
20260506173802 8 8 11.3 24.1 0.00 0.10 0.10 91 1015.6
20260506173302 8 9 11.3 22.5 0.00 0.10 0.10 91 1015.6
20260506172801 8 9 12.9 20.9 0.00 0.10 0.10 91 1015.6
20260506172306 8 4 11.3 19.3 0.00 0.10 0.10 91 1015.5
20260506171801 8 354 11.3 24.1 0.00 0.10 0.10 91 1015.5
20260506170802 8 2 11.3 25.7 0.00 0.10 0.10 91 1015.4
20260506170303 8 12 12.9 25.7 0.00 0.10 0.10 91 1015.4
20260506165802 8 12 14.5 24.1 0.00 0.10 0.10 90 1015.4
20260506165305 8 352 16.1 25.7 0.00 0.10 0.10 91 1015.3
20260506164802 8 351 16.1 29.0 0.00 0.10 0.10 91 1015.3
20260506164302 8 2 17.7 27.4 0.00 0.10 0.10 91 1015.3
20260506163802 8 2 16.1 32.2 0.00 0.10 0.10 91 1015.3
20260506163302 8 4 14.5 29.0 0.00 0.10 0.10 92 1015.4
20260506162804 8 5 11.3 27.4 0.00 0.10 0.10 92 1015.4
20260506161802 8 5 19.3 29.0 0.00 0.10 0.10 91 1015.4
20260506160802 8 19 16.1 29.0 0.00 0.10 0.10 90 1015.3
20260506160302 8 1 19.3 29.0 0.00 0.10 0.10 91 1015.3
20260506155803 8 8 16.1 29.0 0.00 0.10 0.10 90 1015.3
20260506154802 9 5 16.1 27.4 0.00 0.10 0.10 90 1015.4
20260506154304 9 0 19.3 29.0 0.00 0.10 0.10 90 1015.3
20260506153802 9 355 16.1 29.0 0.00 0.10 0.10 90 1015.3
20260506153302 9 12 14.5 32.2 0.00 0.10 0.10 91 1015.3
20260506152802 9 15 16.1 29.0 0.00 0.10 0.10 90 1015.1
20260506152305 9 7 11.3 24.1 0.00 0.10 0.10 90 1015.1
20260506151802 9 14 14.5 27.4 0.00 0.10 0.10 91 1015.1
20260506151301 9 3 14.5 24.1 0.00 0.10 0.10 90 1015.1
20260506150802 9 7 14.5 22.5 0.00 0.10 0.10 90 1015.1
20260506150304 9 339 14.5 27.4 0.00 0.10 0.10 90 1015.1
20260506145804 10 351 14.5 25.7 0.00 0.10 0.10 90 1015.1
20260506144302 10 11 12.9 24.1 0.00 0.10 0.10 89 1015.1
20260506143802 10 0 14.5 24.1 0.00 0.10 0.10 89 1015.0
20260506143303 10 349 12.9 27.4 0.00 0.10 0.10 89 1014.9
20260506142802 10 0 11.3 27.4 0.00 0.10 0.10 89 1015.0
20260506142306 10 335 9.7 22.5 0.00 0.10 0.10 90 1015.1
20260506141302 9 4 14.5 22.5 0.00 0.10 0.10 90 1015.1
20260506140302 9 340 11.3 19.3 0.00 0.10 0.10 90 1015.1
20260506135305 9 349 9.7 19.3 0.00 0.10 0.10 91 1015.2
20260506134803 9 4 12.9 25.7 0.00 0.10 0.10 91 1015.2
20260506134302 9 8 12.9 24.1 0.00 0.10 0.10 91 1015.2
20260506133802 9 347 11.3 24.1 0.00 0.10 0.10 91 1015.0